Trieste, Italy

7:12 PM CET on February 11, 2016 (GMT +0100)
Trieste

Weather History for LIVT - October, 2012

Change the Weather History Date:

Friday, October 5, 2012

  Actual Average (WUND) Record (WUND)
Temperature  
Mean Temperature 68 °F -  
Max Temperature 74 °F 63 °F - (-1)
Min Temperature 61 °F 54 °F - (-1)
Cooling Degree Days 2    
Growing Degree Days 18 (Base 50)    
Moisture  
Dew Point 58 °F    
Average Humidity 74    
Maximum Humidity 88    
Minimum Humidity 61    
Precipitation  
Precipitation 0.00 in 0.12 in - ()
Sea Level Pressure  
Sea Level Pressure 30.08 in    
Wind  
Wind Speed 2 mph ()    
Max Wind Speed 4 mph    
Max Gust Speed -    
Visibility 7.1 miles    
Events      
Averages and records for this station are not official NWS values.
T = Trace of Precipitation, MM = Missing Value Source: Averaged Metar Reports

Daily Weather History Graph

Daily Weather History Graph

Search for Another Location

Airport or City:

Trip Planner

Search our weather history database for the weather conditions in past years. The results will help you decide how hot, cold, wet, or windy it might be!

Date:

Astronomy

Oct. 05, 2012 Rise Set
Actual Time 7:08 AM CEST 6:37 PM CEST
Civil Twilight 6:39 AM CEST 7:06 PM CEST
Nautical Twilight 6:04 AM CEST 7:41 PM CEST
Astronomical Twilight 5:29 AM CEST 8:15 PM CEST
Moon 9:32 PM CEST (10/5) 12:16 PM CEST (10/5)
Length of Visible Light 12h 27m
Length of Day
11h 28m
Waning Gibbous, 76% of the Moon is Illuminated
Oct 5
Waning Gibbous
Oct 8
Last Quarter
Oct 15
New
Oct 22
First Quarter
Oct 29
Full

Hourly Weather History & Observations

Time (CEST) Temp. Dew Point Humidity Pressure Visibility Wind Dir Wind Speed Gust Speed Precip Events Conditions
12:55 AM 62.6 °F 55.4 °F 77% 30.01 in - East 2.3 mph - N/A   Clear
1:55 AM 62.6 °F 55.4 °F 77% 30.01 in - East 3.5 mph - N/A   Clear
2:00 AM 63 °F 56 °F 70% 30.04 in 6 mi East 3.5 mph - -   Clear
2:55 AM 64.4 °F 53.6 °F 68% 30.04 in - East 3.5 mph - N/A   Clear
3:55 AM 64.4 °F 53.6 °F 68% 30.04 in - East 2.3 mph - N/A   Clear
4:55 AM 64.4 °F 51.8 °F 64% 30.04 in - NE 3.5 mph - N/A   Clear
5:55 AM 64.4 °F 51.8 °F 64% 30.04 in - East 2.3 mph - N/A   Clear
6:55 AM 60.8 °F 55.4 °F 82% 30.04 in - ENE 1.2 mph - N/A   Clear
7:55 AM 60.8 °F 55.4 °F 82% 30.06 in - Calm Calm - N/A   Clear
8:00 AM 61 °F 55 °F 75% 30.07 in 12 mi Calm Calm - -   Partly Cloudy
8:55 AM 64.4 °F 57.2 °F 77% 30.06 in - ENE 2.3 mph - N/A   Clear
9:55 AM 69.8 °F 57.2 °F 64% 30.09 in - Calm Calm - N/A   Clear
10:55 AM 73.4 °F 59.0 °F 61% 30.09 in - West 3.5 mph - N/A   Clear
11:55 AM 71.6 °F 59.0 °F 64% 30.09 in - Calm Calm - N/A   Clear
12:55 PM 73.4 °F 60.8 °F 65% 30.12 in - NNW 1.2 mph - N/A   Clear
1:55 PM 71.6 °F 60.8 °F 69% 30.12 in - NNW 1.2 mph - N/A   Clear
2:00 PM 72 °F 61 °F 61% 30.13 in 6 mi NNW 1.2 mph - -   Mostly Cloudy
2:55 PM 71.6 °F 62.6 °F 73% 30.09 in 6.2 mi NW 2.3 mph - N/A   Scattered Clouds
3:55 PM 71.6 °F 64.4 °F 78% 30.09 in 6.2 mi NNW 1.2 mph - N/A   Scattered Clouds
5:55 PM 71.6 °F 62.6 °F 73% 30.09 in - Calm Calm - N/A   Clear
6:55 PM 69.8 °F 62.6 °F 78% 30.09 in - Calm Calm - N/A   Clear
7:55 PM 68.0 °F 62.6 °F 83% 30.09 in - ENE 2.3 mph - N/A   Clear
8:00 PM 67 °F 62 °F 79% 30.11 in 6 mi ENE 2.3 mph - -   Partly Cloudy
8:55 PM 66.2 °F 60.8 °F 83% 30.09 in - ENE 1.2 mph - N/A   Clear
9:55 PM 64.4 °F 60.8 °F 88% 30.09 in - ENE 3.5 mph - N/A   Clear
10:55 PM 64.4 °F 60.8 °F 88% 30.12 in - ENE 3.5 mph - N/A   Clear
11:55 PM 62.6 °F 59.0 °F 88% 30.12 in - ENE 1.2 mph - N/A   Clear